Latest Coastal Weather Observations for Cape Borda

IDS60701

Issued at 6:35 am CST Wednesday 30 July 2014 (issued every 10 minutes, with the page automatically refreshed every 10 minutes)

About coastal observations | Map of coastal stations | Coastal observations for SA | Marine services | Other Formats
Station Details ID: 022823 Name: CAPE BORDA Lat: -35.75 Lon: 136.60 Height: 158.0 m
Data from the previous 72 hours. | See also: Recent months at Cape Borda
Date/Time
CST
Temp

°C
Wind Pressure Rain
since 9am
mm
Weather Cloud Vis
km
Sea
Height
m
Swell
Dir
 
Speed
knots
Gust
knots
hPa Trend Height
m
Period
s
Dir
30/06:30am 14.4 WNW 21 30 1015.5 - 0.0 - - - - - - -
30/06:28am 14.4 WNW 20 30 1015.5 - 0.0 - - - - - - -
30/06:00am 14.4 WNW 20 26 1015.4 F 0.0 Fine Cloudy 10 3 8.0 9 SW
30/05:31am 14.4 WNW 20 30 1015.3 - 0.0 - - - - - - -
30/05:30am 14.4 WNW 21 30 1015.3 - 0.0 - - - - - - -
30/05:05am 14.3 WNW 19 31 1015.1 - 0.0 - - - - - - -
30/05:00am 14.4 WNW 19 26 1015.1 - 0.0 - - - - - - -
30/04:46am 14.2 WNW 19 29 1015.0 - 0.0 - - - - - - -
30/04:30am 14.2 WNW 17 23 1015.0 - 0.0 - - - - - - -
30/04:00am 14.2 WNW 20 27 1015.1 - 0.0 - - - - - - -
30/03:49am 14.0 WNW 19 29 1015.1 - 0.0 - - - - - - -
30/03:30am 14.0 WNW 19 28 1015.3 - 0.0 - - - - - - -
30/03:14am 13.8 WNW 19 29 1015.3 - 0.0 - - - - - - -
30/03:00am 13.7 WNW 18 27 1015.5 - 0.0 - - - - - - -
30/02:59am 13.7 WNW 17 27 1015.4 - 0.0 - - - - - - -
30/02:30am 14.5 W 19 27 1015.7 - 0.0 - - - - - - -
30/02:00am 14.5 WNW 18 26 1015.8 - 0.0 - - - - - - -
30/01:30am 14.4 WNW 16 21 1015.9 - 0.0 - - - - - - -
30/01:06am 14.5 WNW 17 27 1016.0 - 0.0 - - - - - - -
30/01:00am 14.6 WNW 17 22 1016.0 - 0.0 - - - - - - -
30/12:38am 14.4 W 19 31 1016.1 - 0.0 - - - - - - -
30/12:30am 14.4 WNW 21 29 1016.2 - 0.0 - - - - - - -
30/12:20am 14.2 WNW 20 30 1016.1 - 0.0 - - - - - - -
30/12:00am 14.5 WNW 17 23 1016.3 - 0.0 - - - - - - -
 
Date/Time
CST
Temp

°C
Wind Pressure Rain
since 9am
mm
Weather Cloud Vis
km
Sea
Height
m
Swell
Dir
 
Speed
knots
Gust
knots
hPa Trend Height
m
Period
s
Dir
29/11:30pm 14.4 W 18 28 1016.3 - 0.0 - - - - - - -
29/11:21pm 14.3 WNW 17 28 1016.4 - 0.0 - - - - - - -
29/11:00pm 14.4 W 19 27 1016.4 - 0.0 - - - - - - -
29/10:49pm 14.3 WNW 19 31 1016.4 - 0.0 - - - - - - -
29/10:30pm 13.9 W 19 25 1016.4 - 0.0 - - - - - - -
29/10:14pm 14.4 W 19 29 1016.4 - 0.0 - - - - - - -
29/10:00pm 14.4 W 19 27 1016.6 - 0.0 - - - - - - -
29/09:32pm 14.4 W 19 29 1016.4 - 0.0 - - - - - - -
29/09:30pm 14.4 W 20 29 1016.4 - 0.0 - - - - - - -
29/09:18pm 14.0 W 20 30 1016.4 - 0.0 - - - - - - -
29/09:00pm 14.4 W 20 27 1016.3 - 0.0 - - - - - - -
29/08:43pm 14.5 WNW 18 30 1016.0 - 0.0 - - - - - - -
29/08:30pm 14.5 WNW 18 25 1015.9 - 0.0 - - - - - - -
29/08:00pm 14.3 WNW 18 28 1015.8 - 0.0 - - - - - - -
29/07:30pm 14.5 W 20 30 1015.5 - 0.0 - - - - - - -
29/07:02pm 14.6 W 21 32 1015.3 - 0.0 - - - - - - -
29/07:00pm 14.5 W 21 28 1015.3 - 0.0 - - - - - - -
29/06:46pm 14.6 W 21 31 1015.1 - 0.0 - - - - - - -
29/06:30pm 14.5 W 21 30 1015.0 - 0.0 - - - - - - -
29/06:00pm 14.6 W 21 34 1014.8 - 0.0 - - - - - - -
29/05:42pm 14.6 W 21 31 1014.6 - 0.0 - - - - - - -
29/05:30pm 14.6 W 23 32 1014.5 - 0.0 - - - - - - -
29/05:00pm 14.7 W 22 33 1014.3 - 0.0 - - - - - - -
29/04:30pm 15.0 WNW 22 29 1013.8 - 0.0 - - - - - - -
29/04:06pm 15.4 W 21 32 1013.7 - 0.0 - - - - - - -
29/04:00pm 15.2 W 21 30 1013.6 - 0.0 - - - - - - -
29/03:32pm 15.0 W 21 31 1013.5 - 0.0 - - - - - - -
29/03:30pm 14.9 W 22 31 1013.4 - 0.0 - - - - - - -
29/03:00pm 15.5 W 23 35 1013.5 R 0.0 Haze Mostly cloudy 5 3 8.1 8 SW
29/02:35pm 15.4 WNW 24 35 1013.2 - 0.0 - - - - - - -
29/02:30pm 15.6 WNW 23 32 1013.2 - 0.0 - - - - - - -
29/02:01pm 15.2 W 24 34 1013.1 - 0.0 - - - - - - -
29/02:00pm 15.2 W 25 34 1013.0 - 0.0 - - - - - - -
29/01:32pm 15.4 W 22 38 1013.0 - 0.0 - - - - - - -
29/01:30pm 15.2 W 22 31 1013.1 - 0.0 - - - - - - -
29/01:00pm 15.6 W 24 34 1013.3 - 0.0 - - - - - - -
29/12:30pm 15.3 WNW 23 33 1013.5 - 0.0 - - - - - - -
29/12:00pm 15.5 WNW 22 32 1013.9 - 0.0 - - - - - - -
29/11:35am 15.8 WNW 23 35 1013.7 - 0.0 - - - - - - -
29/11:30am 16.1 WNW 22 31 1013.7 - 0.0 - - - - - - -
29/11:00am 15.2 WNW 23 33 1013.9 - 0.0 - - - - - - -
29/10:35am 15.5 WNW 21 31 1013.8 - 0.0 - - - - - - -
29/10:30am 15.6 WNW 23 32 1013.8 - 0.0 - - - - - - -
29/10:19am 15.4 WNW 22 32 1013.8 - 0.0 - - - - - - -
29/10:00am 15.0 WNW 22 31 1013.7 - 0.0 - - - - - - -
29/09:35am 14.8 WNW 24 34 1013.5 - 0.0 - - - - - - -
29/09:30am 14.9 WNW 25 34 1013.5 - 0.0 - - - - - - -
29/09:10am 14.6 WNW 22 32 1013.2 - 0.0 - - - - - - -
29/09:00am 14.6 WNW 24 32 1013.5 F 0.6 - - - - - - -
29/08:30am 14.5 WNW 21 30 1013.2 - 0.6 - - - - - - -
29/08:00am 14.4 WNW 21 29 1013.0 - 0.6 - - - - - - -
29/07:31am 14.0 WNW 21 33 1012.7 - 0.4 - - - - - - -
29/07:30am 14.0 WNW 20 27 1012.7 - 0.4 - - - - - - -
29/07:10am 14.1 WNW 19 33 1012.6 - 0.4 - - - - - - -
29/07:00am 14.3 WNW 19 27 1012.6 - 0.4 - - - - - - -
29/06:42am 14.2 WNW 23 34 1012.5 - 0.4 - - - - - - -
29/06:30am 14.3 WNW 22 30 1012.4 - 0.4 - - - - - - -
29/06:00am 14.0 WNW 20 28 1012.3 S 0.4 Fine Cloudy 15 3 11.0 8 SW
29/05:30am 13.8 W 21 31 1012.0 - 0.4 - - - - - - -
29/05:04am 13.5 WNW 24 35 1011.8 - 0.4 - - - - - - -
29/05:00am 13.6 WNW 23 31 1011.7 - 0.4 - - - - - - -
29/04:32am 14.1 WNW 20 30 1011.7 - 0.0 - - - - - - -
29/04:30am 14.0 WNW 21 30 1011.7 - 0.0 - - - - - - -
29/04:00am 14.3 WNW 24 34 1012.1 - 0.0 - - - - - - -
29/03:46am 13.8 WNW 24 34 1012.1 - 0.0 - - - - - - -
29/03:30am 14.2 WNW 23 32 1012.2 - 0.0 - - - - - - -
29/03:00am 14.3 NW 22 33 1012.3 - 0.0 - - - - - - -
29/02:30am 14.3 NW 21 31 1012.1 - 0.0 - - - - - - -
29/02:02am 14.3 NW 22 35 1012.0 - 0.0 - - - - - - -
29/02:00am 14.2 NW 21 30 1012.0 - 0.0 - - - - - - -
29/01:30am 14.3 NW 21 31 1012.1 - 0.0 - - - - - - -
29/01:04am 14.4 WNW 21 31 1012.3 - 0.0 - - - - - - -
29/01:00am 14.3 WNW 21 30 1012.5 - 0.0 - - - - - - -
29/12:30am 14.5 NW 19 31 1012.7 - 0.0 - - - - - - -
29/12:16am 14.5 WNW 22 32 1013.1 - 0.0 - - - - - - -
29/12:00am 14.4 WNW 24 33 1013.4 - 0.0 - - - - - - -
 
Date/Time
CST
Temp

°C
Wind Pressure Rain
since 9am
mm
Weather Cloud Vis
km
Sea
Height
m
Swell
Dir
 
Speed
knots
Gust
knots
hPa Trend Height
m
Period
s
Dir
28/11:30pm 14.4 WNW 21 32 1013.4 - 0.0 - - - - - - -
28/11:00pm 14.5 NW 21 33 1013.4 - 0.0 - - - - - - -
28/10:35pm 14.6 NW 19 30 1013.6 - 0.0 - - - - - - -
28/10:30pm 14.7 NW 19 28 1013.7 - 0.0 - - - - - - -
28/10:15pm 14.6 NW 18 28 1013.7 - 0.0 - - - - - - -
28/10:00pm 14.6 NW 18 27 1013.8 - 0.0 - - - - - - -
28/09:30pm 14.6 NW 19 29 1013.8 - 0.0 - - - - - - -
28/09:01pm 14.7 NW 18 28 1013.9 - 0.0 - - - - - - -
28/09:00pm 14.7 NW 19 28 1014.1 - 0.0 - - - - - - -
28/08:30pm 14.7 NW 19 30 1014.2 - 0.0 - - - - - - -
28/08:00pm 14.5 NW 21 31 1014.0 - 0.0 - - - - - - -
28/07:30pm 14.6 NW 18 29 1013.9 - 0.0 - - - - - - -
28/07:08pm 14.6 NW 19 29 1013.7 - 0.0 - - - - - - -
28/07:00pm 14.5 NW 19 27 1013.6 - 0.0 - - - - - - -
28/06:31pm 14.5 NW 19 29 1013.5 - 0.0 - - - - - - -
28/06:30pm 14.5 NW 19 26 1013.5 - 0.0 - - - - - - -
28/06:00pm 14.3 NW 22 30 1013.6 - 0.0 - - - - - - -
28/05:30pm 14.2 NW 19 27 1013.4 - 0.0 - - - - - - -
28/05:00pm 14.2 NW 19 26 1013.3 - 0.0 - - - - - - -
28/04:30pm 14.6 NW 17 25 1013.4 - 0.0 - - - - - - -
28/04:00pm 15.0 NW 18 26 1013.5 - 0.0 - - - - - - -
28/03:30pm 14.6 NW 19 27 1013.6 - 0.0 - - - - - - -
28/03:00pm 14.9 NW 15 22 1013.8 F 0.0 Distant precip. Partly cloudy 15 2 6.7 9 SW
28/02:30pm 14.3 NW 17 23 1013.6 - 0.0 - - - - - - -
28/02:00pm 14.9 NW 18 27 1013.7 - 0.0 - - - - - - -
28/01:30pm 15.1 NW 18 25 1014.0 - 0.0 - - - - - - -
28/01:00pm 15.6 NW 17 23 1014.6 - 0.0 - - - - - - -
28/12:30pm 15.5 NW 18 25 1015.3 - 0.0 - - - - - - -
28/12:00pm 15.7 NW 18 25 1015.9 - 0.0 - - - - - - -
28/11:30am 15.0 NW 15 21 1016.2 - 0.0 - - - - - - -
28/11:00am 14.8 NW 16 24 1016.3 - 0.0 - - - - - - -
28/10:30am 14.9 NW 17 23 1016.4 - 0.0 - - - - - - -
28/10:00am 14.7 NW 15 20 1016.5 - 0.0 - - - - - - -
28/09:30am 14.6 NW 15 21 1016.3 - 0.0 - - - - - - -
28/09:00am 14.4 NW 13 18 1016.7 F 0.0 Haze Partly cloudy 15 1 5.9 9 SW
28/08:30am 13.7 WNW 14 19 1016.5 - 0.0 - - - - - - -
28/08:00am 13.4 WNW 14 18 1016.5 - 0.0 - - - - - - -
28/07:30am 13.1 WNW 13 18 1016.3 - 0.0 - - - - - - -
28/07:00am 12.9 WNW 14 20 1015.9 - 0.0 - - - - - - -
28/06:30am 13.0 WNW 13 19 1015.8 - 0.0 - - - - - - -
28/06:00am 12.9 WNW 13 17 1015.8 F 0.0 Fine Clear 20 <0.5 5.0 8 SW
28/05:30am 12.8 WNW 13 17 1015.6 - 0.0 - - - - - - -
28/05:00am 12.8 WNW 13 19 1015.7 - 0.0 - - - - - - -
28/04:30am 12.9 WNW 13 17 1015.8 - 0.0 - - - - - - -
28/04:00am 13.0 WNW 12 18 1016.1 - 0.0 - - - - - - -
28/03:30am 13.4 W 14 20 1016.2 - 0.0 - - - - - - -
28/03:00am 13.5 WNW 13 19 1016.2 - 0.0 - - - - - - -
28/02:30am 13.4 W 13 18 1016.3 - 0.0 - - - - - - -
28/02:00am 13.4 WNW 12 16 1016.3 - 0.0 - - - - - - -
28/01:30am 13.2 W 12 17 1016.3 - 0.0 - - - - - - -
28/01:00am 13.2 WNW 12 17 1016.5 - 0.0 - - - - - - -
28/12:30am 13.5 WNW 11 15 1016.6 - 0.0 - - - - - - -
28/12:00am 13.7 WNW 10 14 1017.2 - 0.0 - - - - - - -
 
Date/Time
CST
Temp

°C
Wind Pressure Rain
since 9am
mm
Weather Cloud Vis
km
Sea
Height
m
Swell
Dir
 
Speed
knots
Gust
knots
hPa Trend Height
m
Period
s
Dir
27/11:30pm 14.0 W 11 16 1017.1 - 0.0 - - - - - - -
27/11:00pm 14.1 WNW 11 15 1017.1 - 0.0 - - - - - - -
27/10:30pm 14.2 WNW 10 14 1017.1 - 0.0 - - - - - - -
27/10:00pm 14.3 NW 10 14 1017.2 - 0.0 - - - - - - -
27/09:30pm 14.4 NW 13 17 1017.3 - 0.0 - - - - - - -
27/09:00pm 14.4 NW 11 17 1017.6 - 0.0 - - - - - - -
27/08:30pm 14.4 NW 12 16 1017.3 - 0.0 - - - - - - -
27/08:00pm 14.3 NW 13 17 1017.4 - 0.0 - - - - - - -
27/07:30pm 14.3 NW 12 17 1017.3 - 0.0 - - - - - - -
27/07:00pm 14.5 NW 14 19 1017.3 - 0.0 - - - - - - -
27/06:30pm 14.4 NNW 13 19 1017.3 - 0.0 - - - - - - -
27/06:00pm 14.3 NNW 11 15 1017.4 - 0.0 - - - - - - -
27/05:30pm 14.5 NNW 10 13 1017.1 - 0.0 - - - - - - -
27/05:00pm 15.2 NNW 11 15 1016.7 - 0.0 - - - - - - -
27/04:30pm 15.5 NNW 11 15 1016.4 - 0.0 - - - - - - -
27/04:00pm 15.7 NNW 13 18 1016.4 - 0.0 - - - - - - -
27/03:30pm 15.2 NNW 13 18 1016.4 - 0.0 - - - - - - -
27/03:00pm 15.4 N 16 23 1016.6 F 0.0 Fine Partly cloudy 15 2 7.8 8 SW
27/02:30pm 15.0 NNW 14 21 1016.7 - 0.0 - - - - - - -
27/02:00pm 15.9 NNW 13 20 1017.0 - 0.0 - - - - - - -
27/01:30pm 14.9 N 14 18 1017.1 - 0.0 - - - - - - -
27/01:00pm 14.6 NNW 14 19 1017.7 - 0.0 - - - - - - -
27/12:30pm 14.8 N 14 20 1018.3 - 0.0 - - - - - - -
27/12:00pm 14.8 N 17 24 1019.0 - 0.0 - - - - - - -
27/11:30am 14.7 N 16 21 1019.0 - 0.0 - - - - - - -
27/11:00am 15.6 N 14 23 1019.3 - 0.0 - - - - - - -
27/10:30am 14.8 N 15 22 1019.7 - 0.0 - - - - - - -
27/10:00am 14.4 N 16 23 1020.0 - 0.0 - - - - - - -
27/09:30am 13.6 N 15 21 1019.9 - 0.0 - - - - - - -
27/09:00am 13.6 N 13 19 1020.3 F 0.0 Fine Mostly cloudy 20 2 6.4 9 SW
27/08:30am 13.4 N 15 22 1020.2 - 0.0 - - - - - - -
27/08:00am 13.4 N 14 20 1020.4 - 0.0 - - - - - - -
27/07:30am 13.2 N 15 21 1020.5 - 0.0 - - - - - - -
27/07:00am 13.2 N 14 20 1020.3 - 0.0 - - - - - - -

Other Formats:

Comma delimited format used in spreadsheet applications
http://www.bom.gov.au/fwo/IDS60701/IDS60701.95805.axf

JavaScript Object Notation format (JSON) in row-major order
http://www.bom.gov.au/fwo/IDS60701/IDS60701.95805.json